Вернуться в каталог

USA 40 R/B DEB

АктивенHEO
NORAD 23383·DEBRIS·🇺🇸 United States

Запущен Aug 8, 1989 с Cape Canaveral Space Force Station

Loading…

Ближайшие Пролёты (ближайшие 24 часа)

TLE

СвежийSource: Space-Track

Эпоха: Sep 12, 2026, 04:29 UTC

1 23383U 89061BF  26255.18687928  .00004229  00000-0  16752-2 0  9992
2 23383  56.9909 196.1000 2665441 199.2261 148.5483  9.65167544252597

Отслеживайте USA 40 R/B DEB в реальном времени с AllMySat

Download on the App Store